Weather History for Burlington, CO

Change the Weather History Date:

Wednesday, March 26, 2014

  Actual Average Record
Temperature  
Mean Temperature 55 °F 43 °F  
Max Temperature 73 °F 58 °F 84 °F (1998)
Min Temperature 36 °F 28 °F -1 °F (1996)
Degree Days  
Heating Degree Days 10    
Growing Degree Days 5 (Base 50)    
Moisture  
Dew Point 25 °F    
Average Humidity 35    
Maximum Humidity 68    
Minimum Humidity 12    
Precipitation  
Precipitation 0.00 in 0.03 in 0.40 in (1949)
Month to date precipitation 0.07 0.71  
Year to date precipitation 0.77 1.51  
Sea Level Pressure  
Sea Level Pressure 29.43 in    
Wind  
Wind Speed 19 mph (SW)    
Max Wind Speed 26 mph    
Max Gust Speed 36 mph    
Visibility 10 miles    
Events      
T = Trace of Precipitation, MM = Missing Value Source: NWS Daily Summary

Daily Weather History Graph

Daily Weather History Graph

Search for Another Location

Airport:

Trip Planner

Search our weather history database for the weather conditions in past years. The results will help you decide how hot, cold, wet, or windy it might be!

Date:

Astronomy

Mar. 26, 2014 Rise Set
Actual Time 6:42 AM MDT 7:07 PM MDT
Civil Twilight 6:16 AM MDT 7:33 PM MDT
Nautical Twilight 5:44 AM MDT 8:05 PM MDT
Astronomical Twilight 5:12 AM MDT 8:37 PM MDT
Moon 3:51 AM MDT (3/26) 2:49 PM MDT (3/26)
Length of Visible Light 13h 17m
Length of Day
12h 24m
Waning Crescent, 21% of the Moon is Illuminated
Mar 26
Waning Crescent
Mar 30
New
Apr 7
First Quarter
Apr 15
Full
Apr 22
Last Quarter

Hourly Weather History & Observations

Time (MDT) Temp. Windchill Dew Point Humidity Pressure Visibility Wind Dir Wind Speed Gust Speed Precip Events Conditions
12:53 AM 39.0 °F 29.6 °F 25.0 °F 57% 29.75 in 10.0 mi South 18.4 mph - N/A   Clear
1:53 AM 39.0 °F 29.6 °F 28.0 °F 65% 29.70 in 10.0 mi South 18.4 mph - N/A   Clear
2:53 AM 39.9 °F 30.2 °F 30.0 °F 68% 29.64 in 10.0 mi South 20.7 mph - N/A   Clear
3:53 AM 39.9 °F 31.1 °F 28.9 °F 65% 29.61 in 10.0 mi SSW 17.3 mph - N/A   Clear
4:53 AM 42.1 °F 33.9 °F 28.9 °F 60% 29.59 in 10.0 mi SW 17.3 mph - N/A   Clear
5:53 AM 37.9 °F 29.2 °F 27.0 °F 65% 29.58 in 10.0 mi SW 15.0 mph - N/A   Clear
6:53 AM 37.0 °F 30.4 °F 26.1 °F 65% 29.58 in 10.0 mi SW 9.2 mph - N/A   Clear
7:53 AM 43.0 °F 34.8 °F 28.0 °F 56% 29.60 in 10.0 mi SW 18.4 mph 24.2 mph N/A   Clear
8:53 AM 52.0 °F - 27.0 °F 38% 29.56 in 10.0 mi WSW 20.7 mph 25.3 mph N/A   Clear
9:53 AM 61.0 °F - 24.1 °F 24% 29.53 in 10.0 mi SW 20.7 mph - N/A   Clear
10:53 AM 66.0 °F - 23.0 °F 20% 29.50 in 10.0 mi SW 19.6 mph - N/A   Clear
11:53 AM 68.0 °F - 28.0 °F 22% 29.46 in 10.0 mi SSW 17.3 mph - N/A   Clear
12:53 PM 70.0 °F - 28.0 °F 21% 29.42 in 10.0 mi South 16.1 mph 25.3 mph N/A   Clear
1:53 PM 71.1 °F - 26.1 °F 19% 29.38 in 10.0 mi SSW 21.9 mph 26.5 mph N/A   Clear
2:53 PM 73.0 °F - 24.1 °F 16% 29.33 in 10.0 mi SW 25.3 mph 31.1 mph N/A   Clear
3:53 PM 72.0 °F - 21.0 °F 15% 29.30 in 10.0 mi SSW 18.4 mph 29.9 mph N/A   Clear
4:53 PM 73.0 °F - 18.0 °F 12% 29.26 in 10.0 mi SSW 18.4 mph - N/A   Clear
5:53 PM 69.1 °F - 23.0 °F 18% 29.26 in 8.0 mi SSE 18.4 mph 23.0 mph N/A   Partly Cloudy
6:27 PM 68.0 °F - 16.0 °F 14% 29.35 in 7.0 mi SW 19.6 mph 28.8 mph N/A   Clear
6:53 PM 64.0 °F - 18.0 °F 17% 29.26 in 10.0 mi SW 15.0 mph - N/A   Clear
7:53 PM 61.0 °F - 19.9 °F 21% 29.26 in 6.0 mi SW 19.6 mph - N/A   Haze
8:53 PM 60.1 °F - 19.9 °F 21% 29.24 in 9.0 mi WSW 23.0 mph - N/A   Clear
9:53 PM 57.9 °F - 23.0 °F 26% 29.23 in 9.0 mi SW 23.0 mph - N/A   Clear
10:53 PM 57.9 °F - 26.1 °F 30% 29.24 in 10.0 mi WSW 26.5 mph 35.7 mph N/A   Clear
11:53 PM 54.0 °F - 28.9 °F 38% 29.23 in 10.0 mi West 17.3 mph - N/A   Partly Cloudy